Location: Unspecified
(0.0000°N, 0.0000°E)
Time: 05:29:05
(UTC+00:00)

AAUSAT CUBESAT 2 - Pass Details

Date: 20 July 2020
Orbit: 574 x 589 km, 97.5° (Epoch: 13 August)

Event Time Altitude Azimuth Distance (km) Brightness Sun altitude
Rises 05:02:16 0° 34° (NE) 2,801 ? -15.0°
Reaches altitude 10° 05:04:47 10° 49° (NE) 1,902 ? -14.4°
Maximum altitude 05:08:02 23° 101° (ESE) 1,276 ? -13.7°
Drops below altitude 10° 05:11:17 10° 153° (SSE) 1,903 ? -12.9°
Sets 05:13:47 0° 168° (SSE) 2,802 ? -12.3°
